Weather History for Curtin, WE

Change the Weather History Date:

Saturday, March 1, 2014

  Actual Average Record
Temperature  
Mean Temperature 86 °F -  
Max Temperature 100 °F - - ()
Min Temperature 72 °F - - ()
Cooling Degree Days 21    
Growing Degree Days 36 (Base 50)    
Moisture  
Dew Point 64 °F    
Average Humidity 50    
Maximum Humidity 88    
Minimum Humidity 17    
Precipitation  
Precipitation 0.00 in - - ()
Sea Level Pressure  
Sea Level Pressure 29.75 in    
Wind  
Wind Speed 6 mph ()    
Max Wind Speed 10 mph    
Max Gust Speed -    
T = Trace of Precipitation, MM = Missing Value Source: Averaged Metar Reports

Daily Weather History Graph

Daily Weather History Graph

Search for Another Location

Airport:

Trip Planner

Search our weather history database for the weather conditions in past years. The results will help you decide how hot, cold, wet, or windy it might be!

Date:

Astronomy

Mar. 01, 2014 Rise Set
Actual Time 5:43 AM AWST 6:10 PM AWST
Civil Twilight 5:21 AM AWST 6:32 PM AWST
Nautical Twilight 4:56 AM AWST 6:57 PM AWST
Astronomical Twilight 4:30 AM AWST 7:23 PM AWST
Moon 5:20 AM AWST (3/1) 5:59 PM AWST (3/1)
Length of Visible Light 13h 10m
Length of Day
12h 26m
Waning Crescent, 0% of the Moon is Illuminated
Mar 1
Waning Crescent
Mar 1
New
Mar 8
First Quarter
Mar 17
Full
Mar 24
Last Quarter

Hourly Weather History & Observations

Time (AWST) Temp. Heat Index Dew Point Humidity Pressure Visibility Wind Dir Wind Speed Gust Speed Precip Events Conditions
12:00 AM 80 °F - 68 °F 58% 29.77 in - East 5.8 mph - -  
12:00 AM 80.6 °F 83.2 °F 68.0 °F 65% 29.77 in - East 5.8 mph - N/A   Scattered Clouds
1:00 AM 82.4 °F 83.9 °F 64.4 °F 54% 29.77 in - East 5.8 mph - N/A   Unknown
2:00 AM 78.8 °F - 68.0 °F 69% 29.74 in - East 5.8 mph - N/A   Scattered Clouds
3:00 AM 74 °F - 69 °F 80% 29.75 in - West 1.2 mph - -  
3:00 AM 73.4 °F - 69.8 °F 88% 29.74 in - West 1.2 mph - N/A   Unknown
4:00 AM 75.2 °F - 69.8 °F 83% 29.74 in - South 4.6 mph - N/A   Unknown
5:00 AM 77.0 °F - 68.0 °F 74% 29.77 in - SE 6.9 mph - N/A   Scattered Clouds
6:00 AM 74 °F - 67 °F 73% 29.78 in - ESE 4.6 mph - -  
6:00 AM 73.4 °F - 68.0 °F 83% 29.80 in - ESE 4.6 mph - N/A   Scattered Clouds
7:00 AM 84.2 °F 86.6 °F 66.2 °F 55% 29.80 in - ESE 6.9 mph - N/A   Unknown
8:00 AM 89.6 °F 91.1 °F 64.4 °F 43% 29.80 in - East 6.9 mph - N/A   Unknown
9:00 AM 92 °F - 61 °F 25% 29.81 in - East 10.4 mph - -  
9:00 AM 91.4 °F 91.4 °F 60.8 °F 36% 29.80 in - East 10.4 mph - N/A   Unknown
10:00 AM 95.0 °F 94.4 °F 59.0 °F 30% 29.80 in - East 9.2 mph - N/A   Unknown
11:00 AM 95.0 °F 95.2 °F 60.8 °F 32% 29.77 in - ENE 10.4 mph - N/A   Unknown
12:00 PM 98 °F - 60 °F 19% 29.75 in - ESE 9.2 mph - -  
12:00 PM 98.6 °F 99.4 °F 60.8 °F 29% 29.74 in - ESE 9.2 mph - N/A   Unknown
1:00 PM 98.6 °F 97.6 °F 57.2 °F 25% 29.71 in - ESE 10.4 mph - N/A   Scattered Clouds
2:00 PM 100.4 °F 98.8 °F 55.4 °F 22% 29.71 in - South 6.9 mph - N/A   Unknown
3:00 PM 98 °F - 57 °F 17% 29.69 in - ESE 8.1 mph - -  
3:00 PM 98.6 °F 97.6 °F 57.2 °F 25% 29.68 in - ESE 8.1 mph - N/A   Unknown
4:00 PM 98.6 °F 98.5 °F 59.0 °F 27% 29.68 in - East 8.1 mph - N/A   Unknown
5:00 PM 96.8 °F 97.1 °F 60.8 °F 30% 29.68 in - East 4.6 mph - N/A   Unknown
6:00 PM 91 °F - 67 °F 36% 29.72 in - ESE 3.5 mph - -  
6:00 PM 91.4 °F 95.4 °F 68.0 °F 46% 29.71 in - ESE 3.5 mph - N/A   Unknown
7:00 PM 84.2 °F 88.4 °F 69.8 °F 62% 29.74 in - SE 4.6 mph - N/A   Unknown
8:00 PM 82.4 °F 86.3 °F 69.8 °F 66% 29.77 in - SSE 5.8 mph - N/A   Unknown
9:00 PM 82 °F - 67 °F 51% 29.77 in - SE 5.8 mph - -  
9:00 PM 82.4 °F 84.6 °F 66.2 °F 58% 29.77 in - SE 5.8 mph - N/A   Scattered Clouds
10:00 PM 78.8 °F - 69.8 °F 74% 29.77 in - SE 5.8 mph - N/A   Unknown
11:00 PM 82.4 °F 83.9 °F 64.4 °F 54% 29.77 in - SE 5.8 mph - N/A   Unknown